Location: Baia Mare
(47.6567°N, 23.5850°E)
Time: 02:25:47
(UTC+03:00)

ISS - Pass Details

Date: 18 September 2018
Orbit: 403 x 409 km, 51.6° (Epoch: 24 September)

Event Time Altitude Azimuth Distance (km) Brightness Sun altitude
Exits shadow 05:05:49 12° 152° (SSE) 1,367 -1.2 -20.3°
Drops below altitude 10° 05:06:03 10° 150° (SSE) 1,453 -1.0 -20.3°
Sets 05:08:13 0° 140° (SE) 2,308 0.2 -19.9°
